Location: Manas
(43.3709°N, 0.3616°E)
Time: 02:38:52
(UTC+00:00)

Cosmos 1656 - Pass Details

Date: 08 July 2025
Orbit: 798 x 846 km, 71.1° (Epoch: 11 April)

Event Time Altitude Azimuth Distance (km) Brightness Sun altitude
Exits shadow 23:07:36 11° 94° (E) 2,372 5.8 -22.9°
Drops below altitude 10° 23:08:55 10° 81° (E) 2,440 6.0 -23.0°
Enters shadow 00:14:09 -60° 204° (SSW) 12,019 9.6 -24.1°
Maximum altitude 00:50:10 83° 113° (ESE) 843 3.6 -23.3°
